Location: Brno
(49.2000°N, 16.6330°E)
Time: 11:18:06
(UTC+02:00)

CARTOSAT-1 - Visible Passes

Search period start: 23 April 2014 00:00
Search period end: 03 May 2014 00:00
Orbit: 617 x 620 km, 97.8° (Epoch: 22 April)

Date Brightness Start Highest point End Pass type
(mag) Time Alt. Az. Time Alt. Az. Time Alt. Az.
23 Apr 4.1 22:11:44 37° ESE 22:12:44 44° ENE 22:16:51 10° N visible
23 Apr 5.4 23:48:52 22° W 23:49:01 22° W 23:52:24 10° NW visible
24 Apr 3.6 22:28:35 51° SE 22:29:26 64° ENE 22:33:43 10° N visible
25 Apr 5.8 00:05:43 15° W 00:05:57 15° W 00:08:32 10° NW visible
25 Apr 5.7 21:08:41 10° E 21:10:43 13° ENE 21:12:45 10° NNE visible
25 Apr 3.5 22:45:26 62° S 22:46:09 88° WSW 22:50:30 10° NNW visible
26 Apr 6.2 00:22:33 10° W 00:22:55 10° W 00:23:44 10° WNW visible
26 Apr 5.4 21:25:09 13° E 21:27:15 18° ENE 21:30:11 10° NNE visible
26 Apr 3.8 23:02:17 53° SW 23:02:55 60° W 23:07:13 10° NNW visible
27 Apr 5.0 21:42:00 19° E 21:43:50 25° ENE 21:47:20 10° N visible
27 Apr 4.4 23:19:07 38° WSW 23:19:43 41° W 23:23:49 10° NNW visible
28 Apr 4.5 21:58:50 25° ESE 22:00:26 34° ENE 22:04:20 10° N visible
28 Apr 4.9 23:35:57 27° WSW 23:36:33 28° W 23:40:19 10° NW visible
29 Apr 4.0 22:15:40 34° ESE 22:17:05 48° ENE 22:21:15 10° N visible
29 Apr 5.5 23:52:47 19° WSW 23:53:26 20° W 23:56:38 10° NW visible
30 Apr 5.9 20:57:47 10° ENE 20:58:29 10° NE 20:59:10 10° NE visible
30 Apr 3.5 22:32:29 44° SE 22:33:45 71° ENE 22:38:04 10° N visible
01 May 5.9 00:09:37 14° W 00:10:20 14° W 00:12:37 10° NW visible
01 May 5.6 21:12:40 10° E 21:14:58 14° ENE 21:17:17 10° NNE visible
01 May 3.5 22:49:19 48° S 22:50:28 80° WSW 22:54:49 10° NNW visible
02 May 5.3 21:29:01 13° E 21:31:30 20° ENE 21:34:35 10° NNE visible
02 May 4.0 23:06:08 42° SSW 23:07:13 54° W 23:11:28 10° NNW visible
